Time,TemperatureF,DewpointF,PressureIn,WindDirection,WindDirectionDegrees,WindSpeedMPH,WindSpeedGustMPH,Humidity,HourlyPrecipIn,Conditions,Clouds,dailyrainin,SoftwareType,DateUTC
2013-05-23 00:03:00,73.0,65.0,-100.00,North,-999,-999.0,-999.0,75,-99.99,,,-99.99,,2013-05-23 04:03:00,
2013-05-23 00:12:00,73.0,65.0,-100.00,North,-999,-999.0,-999.0,75,-99.99,,,-99.99,,2013-05-23 04:12:00,
2013-05-23 00:23:00,74.0,65.0,-100.00,North,-999,-999.0,-999.0,74,-99.99,,,-99.99,,2013-05-23 04:23:00,
2013-05-23 00:33:00,73.0,65.0,-100.00,North,-999,-999.0,-999.0,75,-99.99,,,-99.99,,2013-05-23 04:33:00,
2013-05-23 00:43:00,73.0,65.0,-100.00,North,-999,-999.0,-999.0,75,-99.99,,,-99.99,,2013-05-23 04:43:00,
2013-05-23 00:52:00,73.0,65.0,-100.00,North,-999,-999.0,-999.0,76,-99.99,,,-99.99,,2013-05-23 04:52:00,
2013-05-23 01:02:00,73.0,65.0,-100.00,North,-999,-999.0,-999.0,76,-99.99,,,-99.99,,2013-05-23 05:02:00,
2013-05-23 01:11:00,73.0,65.0,-100.00,North,-999,-999.0,-999.0,76,-99.99,,,-99.99,,2013-05-23 05:11:00,
2013-05-23 01:22:00,73.0,65.0,-100.00,North,-999,-999.0,-999.0,77,-99.99,,,-99.99,,2013-05-23 05:22:00,
2013-05-23 01:32:00,73.0,65.0,-100.00,North,-999,-999.0,-999.0,77,-99.99,,,-99.99,,2013-05-23 05:32:00,
2013-05-23 01:43:00,73.0,65.0,-100.00,North,-999,-999.0,-999.0,77,-99.99,,,-99.99,,2013-05-23 05:43:00,
2013-05-23 01:52:00,70.0,67.0,-100.00,North,-999,-999.0,-999.0,90,-99.99,,,-99.99,,2013-05-23 05:52:00,
2013-05-23 02:02:00,69.0,67.0,-100.00,North,-999,-999.0,-999.0,92,-99.99,,,-99.99,,2013-05-23 06:02:00,
2013-05-23 02:12:00,69.0,67.0,-100.00,North,-999,-999.0,-999.0,92,-99.99,,,-99.99,,2013-05-23 06:12:00,
2013-05-23 02:22:00,69.0,67.0,-100.00,North,-999,-999.0,-999.0,94,-99.99,,,-99.99,,2013-05-23 06:22:00,
2013-05-23 02:32:00,69.0,67.0,-100.00,North,-999,-999.0,-999.0,94,-99.99,,,-99.99,,2013-05-23 06:32:00,
2013-05-23 02:42:00,69.0,67.0,-100.00,North,-999,-999.0,-999.0,94,-99.99,,,-99.99,,2013-05-23 06:42:00,
2013-05-23 02:52:00,68.0,67.0,-100.00,North,-999,-999.0,-999.0,95,-99.99,,,-99.99,,2013-05-23 06:52:00,
2013-05-23 03:02:00,68.0,67.0,-100.00,North,-999,-999.0,-999.0,95,-99.99,,,-99.99,,2013-05-23 07:02:00,
2013-05-23 03:11:00,68.0,67.0,-100.00,North,-999,-999.0,-999.0,95,-99.99,,,-99.99,,2013-05-23 07:11:00,
2013-05-23 03:22:00,69.0,67.0,-100.00,North,-999,-999.0,-999.0,95,-99.99,,,-99.99,,2013-05-23 07:22:00,
2013-05-23 03:32:00,69.0,67.0,-100.00,North,-999,-999.0,-999.0,95,-99.99,,,-99.99,,2013-05-23 07:32:00,
2013-05-23 03:42:00,69.0,67.0,-100.00,North,-999,-999.0,-999.0,95,-99.99,,,-99.99,,2013-05-23 07:42:00,
2013-05-23 03:59:00,69.0,67.0,-100.00,North,-999,-999.0,-999.0,94,-99.99,,,-99.99,,2013-05-23 07:59:00,
2013-05-23 04:12:00,69.0,67.0,-100.00,North,-999,-999.0,-999.0,94,-99.99,,,-99.99,,2013-05-23 08:12:00,
2013-05-23 04:22:00,69.0,67.0,-100.00,North,-999,-999.0,-999.0,93,-99.99,,,-99.99,,2013-05-23 08:22:00,
2013-05-23 04:32:00,68.0,66.0,-100.00,North,-999,-999.0,-999.0,93,-99.99,,,-99.99,,2013-05-23 08:32:00,
2013-05-23 04:42:00,68.0,66.0,-100.00,North,-999,-999.0,-999.0,93,-99.99,,,-99.99,,2013-05-23 08:42:00,
2013-05-23 04:52:00,68.0,66.0,-100.00,North,-999,-999.0,-999.0,93,-99.99,,,-99.99,,2013-05-23 08:52:00,
2013-05-23 05:02:00,68.0,66.0,-100.00,North,-999,-999.0,-999.0,93,-99.99,,,-99.99,,2013-05-23 09:02:00,
2013-05-23 05:11:00,68.0,66.0,-100.00,North,-999,-999.0,-999.0,93,-99.99,,,-99.99,,2013-05-23 09:11:00,
2013-05-23 05:22:00,68.0,66.0,-100.00,North,-999,-999.0,-999.0,94,-99.99,,,-99.99,,2013-05-23 09:22:00,
2013-05-23 05:33:00,68.0,66.0,-100.00,North,-999,-999.0,-999.0,93,-99.99,,,-99.99,,2013-05-23 09:33:00,
2013-05-23 05:42:00,68.0,66.0,-100.00,North,-999,-999.0,-999.0,93,-99.99,,,-99.99,,2013-05-23 09:42:00,
2013-05-23 05:53:00,68.0,66.0,-100.00,North,-999,-999.0,-999.0,94,-99.99,,,-99.99,,2013-05-23 09:53:00,
2013-05-23 06:03:00,68.0,66.0,-100.00,North,-999,-999.0,-999.0,94,-99.99,,,-99.99,,2013-05-23 10:03:00,
2013-05-23 06:13:00,68.0,66.0,-100.00,North,-999,-999.0,-999.0,94,-99.99,,,-99.99,,2013-05-23 10:13:00,
2013-05-23 06:22:00,68.0,66.0,-100.00,North,-999,-999.0,-999.0,93,-99.99,,,-99.99,,2013-05-23 10:22:00,
2013-05-23 06:32:00,68.0,66.0,-100.00,North,-999,-999.0,-999.0,93,-99.99,,,-99.99,,2013-05-23 10:32:00,
2013-05-23 06:42:00,68.0,66.0,-100.00,North,-999,-999.0,-999.0,93,-99.99,,,-99.99,,2013-05-23 10:42:00,
2013-05-23 06:52:00,68.0,66.0,-100.00,North,-999,-999.0,-999.0,93,-99.99,,,-99.99,,2013-05-23 10:52:00,
2013-05-23 07:02:00,68.0,66.0,-100.00,North,-999,-999.0,-999.0,93,-99.99,,,-99.99,,2013-05-23 11:02:00,
2013-05-23 07:12:00,68.0,66.0,-100.00,North,-999,-999.0,-999.0,93,-99.99,,,-99.99,,2013-05-23 11:12:00,
2013-05-23 07:22:00,68.0,66.0,-100.00,North,-999,-999.0,-999.0,93,-99.99,,,-99.99,,2013-05-23 11:22:00,
2013-05-23 07:32:00,68.0,66.0,-100.00,North,-999,-999.0,-999.0,93,-99.99,,,-99.99,,2013-05-23 11:32:00,
2013-05-23 07:42:00,68.0,66.0,-100.00,North,-999,-999.0,-999.0,93,-99.99,,,-99.99,,2013-05-23 11:42:00,
2013-05-23 07:52:00,68.0,65.0,-100.00,North,-999,-999.0,-999.0,90,-99.99,,,-99.99,,2013-05-23 11:52:00,
2013-05-23 08:01:00,68.0,65.0,-100.00,North,-999,-999.0,-999.0,89,-99.99,,,-99.99,,2013-05-23 12:01:00,
2013-05-23 08:12:00,68.0,65.0,-100.00,North,-999,-999.0,-999.0,89,-99.99,,,-99.99,,2013-05-23 12:12:00,
2013-05-23 08:22:00,68.0,65.0,-100.00,North,-999,-999.0,-999.0,91,-99.99,,,-99.99,,2013-05-23 12:22:00,
2013-05-23 08:32:00,69.0,65.0,-100.00,North,-999,-999.0,-999.0,89,-99.99,,,-99.99,,2013-05-23 12:32:00,
2013-05-23 08:42:00,69.0,65.0,-100.00,North,-999,-999.0,-999.0,89,-99.99,,,-99.99,,2013-05-23 12:42:00,
2013-05-23 08:52:00,70.0,65.0,-100.00,North,-999,-999.0,-999.0,85,-99.99,,,-99.99,,2013-05-23 12:52:00,
2013-05-23 09:01:00,70.0,65.0,-100.00,North,-999,-999.0,-999.0,82,-99.99,,,-99.99,,2013-05-23 13:01:00,
2013-05-23 09:11:00,70.0,65.0,-100.00,North,-999,-999.0,-999.0,82,-99.99,,,-99.99,,2013-05-23 13:11:00,
2013-05-23 09:22:00,72.0,65.0,-100.00,North,-999,-999.0,-999.0,80,-99.99,,,-99.99,,2013-05-23 13:22:00,
2013-05-23 09:32:00,72.0,65.0,-100.00,North,-999,-999.0,-999.0,80,-99.99,,,-99.99,,2013-05-23 13:32:00,
2013-05-23 09:42:00,72.0,65.0,-100.00,North,-999,-999.0,-999.0,80,-99.99,,,-99.99,,2013-05-23 13:42:00,
2013-05-23 09:52:00,73.0,66.0,-100.00,North,-999,-999.0,-999.0,79,-99.99,,,-99.99,,2013-05-23 13:52:00,
2013-05-23 10:02:00,73.0,65.0,-100.00,North,-999,-999.0,-999.0,75,-99.99,,,-99.99,,2013-05-23 14:02:00,
2013-05-23 10:11:00,73.0,65.0,-100.00,North,-999,-999.0,-999.0,75,-99.99,,,-99.99,,2013-05-23 14:11:00,
2013-05-23 10:21:00,74.0,66.0,-100.00,North,-999,-999.0,-999.0,76,-99.99,,,-99.99,,2013-05-23 14:21:00,
2013-05-23 10:32:00,74.0,65.0,-100.00,North,-999,-999.0,-999.0,74,-99.99,,,-99.99,,2013-05-23 14:32:00,
2013-05-23 10:42:00,74.0,65.0,-100.00,North,-999,-999.0,-999.0,74,-99.99,,,-99.99,,2013-05-23 14:42:00,
2013-05-23 10:52:00,74.0,65.0,-100.00,North,-999,-999.0,-999.0,73,-99.99,,,-99.99,,2013-05-23 14:52:00,
2013-05-23 11:01:00,73.0,65.0,-100.00,North,-999,-999.0,-999.0,75,-99.99,,,-99.99,,2013-05-23 15:01:00,
2013-05-23 11:11:00,73.0,65.0,-100.00,North,-999,-999.0,-999.0,75,-99.99,,,-99.99,,2013-05-23 15:11:00,
2013-05-23 11:22:00,75.0,64.0,-100.00,North,-999,-999.0,-999.0,69,-99.99,,,-99.99,,2013-05-23 15:22:00,
2013-05-23 11:33:00,75.0,64.0,-100.00,North,-999,-999.0,-999.0,69,-99.99,,,-99.99,,2013-05-23 15:33:00,
2013-05-23 11:43:00,75.0,64.0,-100.00,North,-999,-999.0,-999.0,69,-99.99,,,-99.99,,2013-05-23 15:43:00,
2013-05-23 11:53:00,78.0,67.0,-100.00,North,-999,-999.0,-999.0,69,-99.99,,,-99.99,,2013-05-23 15:53:00,
2013-05-23 12:03:00,78.0,67.0,-100.00,North,-999,-999.0,-999.0,69,-99.99,,,-99.99,,2013-05-23 16:03:00,
2013-05-23 12:13:00,78.0,67.0,-100.00,North,-999,-999.0,-999.0,69,-99.99,,,-99.99,,2013-05-23 16:13:00,
2013-05-23 12:23:00,78.0,66.0,-100.00,North,-999,-999.0,-999.0,67,-99.99,,,-99.99,,2013-05-23 16:23:00,
2013-05-23 12:34:00,79.0,66.0,-100.00,North,-999,-999.0,-999.0,64,-99.99,,,-99.99,,2013-05-23 16:34:00,
2013-05-23 12:42:00,79.0,66.0,-100.00,North,-999,-999.0,-999.0,64,-99.99,,,-99.99,,2013-05-23 16:42:00,
2013-05-23 12:53:00,80.0,65.0,-100.00,North,-999,-999.0,-999.0,62,-99.99,,,-99.99,,2013-05-23 16:53:00,
2013-05-23 13:03:00,80.0,67.0,-100.00,North,-999,-999.0,-999.0,63,-99.99,,,-99.99,,2013-05-23 17:03:00,
2013-05-23 13:12:00,80.0,67.0,-100.00,North,-999,-999.0,-999.0,63,-99.99,,,-99.99,,2013-05-23 17:12:00,
2013-05-23 13:23:00,83.0,66.0,-100.00,North,-999,-999.0,-999.0,57,-99.99,,,-99.99,,2013-05-23 17:23:00,
2013-05-23 13:33:00,83.0,66.0,-100.00,North,-999,-999.0,-999.0,57,-99.99,,,-99.99,,2013-05-23 17:33:00,
2013-05-23 13:43:00,83.0,66.0,-100.00,North,-999,-999.0,-999.0,57,-99.99,,,-99.99,,2013-05-23 17:43:00,
2013-05-23 13:53:00,81.0,66.0,-100.00,North,-999,-999.0,-999.0,61,-99.99,,,-99.99,,2013-05-23 17:53:00,
2013-05-23 14:01:00,81.0,66.0,-100.00,North,-999,-999.0,-999.0,61,-99.99,,,-99.99,,2013-05-23 18:01:00,
2013-05-23 14:11:00,81.0,67.0,-100.00,North,-999,-999.0,-999.0,62,-99.99,,,-99.99,,2013-05-23 18:11:00,
2013-05-23 14:22:00,80.0,67.0,-100.00,North,-999,-999.0,-999.0,64,-99.99,,,-99.99,,2013-05-23 18:22:00,
2013-05-23 14:32:00,80.0,67.0,-100.00,North,-999,-999.0,-999.0,64,-99.99,,,-99.99,,2013-05-23 18:32:00,
2013-05-23 14:42:00,80.0,67.0,-100.00,North,-999,-999.0,-999.0,64,-99.99,,,-99.99,,2013-05-23 18:42:00,
2013-05-23 14:52:00,79.0,66.0,-100.00,North,-999,-999.0,-999.0,63,-99.99,,,-99.99,,2013-05-23 18:52:00,
2013-05-23 15:01:00,80.0,66.0,-100.00,North,-999,-999.0,-999.0,63,-99.99,,,-99.99,,2013-05-23 19:01:00,
2013-05-23 15:11:00,80.0,66.0,-100.00,North,-999,-999.0,-999.0,63,-99.99,,,-99.99,,2013-05-23 19:11:00,
2013-05-23 15:21:00,80.0,65.0,-100.00,North,-999,-999.0,-999.0,60,-99.99,,,-99.99,,2013-05-23 19:21:00,
2013-05-23 15:32:00,82.0,67.0,-100.00,North,-999,-999.0,-999.0,62,-99.99,,,-99.99,,2013-05-23 19:32:00,
2013-05-23 15:42:00,82.0,67.0,-100.00,North,-999,-999.0,-999.0,62,-99.99,,,-99.99,,2013-05-23 19:42:00,
2013-05-23 15:52:00,83.0,66.0,-100.00,North,-999,-999.0,-999.0,56,-99.99,,,-99.99,,2013-05-23 19:52:00,
2013-05-23 16:02:00,83.0,67.0,-100.00,North,-999,-999.0,-999.0,58,-99.99,,,-99.99,,2013-05-23 20:02:00,
2013-05-23 16:12:00,83.0,67.0,-100.00,North,-999,-999.0,-999.0,58,-99.99,,,-99.99,,2013-05-23 20:12:00,
2013-05-23 16:22:00,78.0,68.0,-100.00,North,-999,-999.0,-999.0,71,-99.99,,,-99.99,,2013-05-23 20:22:00,
2013-05-23 16:32:00,82.0,67.0,-100.00,North,-999,-999.0,-999.0,61,-99.99,,,-99.99,,2013-05-23 20:32:00,
2013-05-23 16:42:00,82.0,67.0,-100.00,North,-999,-999.0,-999.0,61,-99.99,,,-99.99,,2013-05-23 20:42:00,
2013-05-23 16:52:00,81.0,65.0,-100.00,North,-999,-999.0,-999.0,57,-99.99,,,-99.99,,2013-05-23 20:52:00,
2013-05-23 17:01:00,82.0,66.0,-100.00,North,-999,-999.0,-999.0,58,-99.99,,,-99.99,,2013-05-23 21:01:00,
2013-05-23 17:11:00,82.0,66.0,-100.00,North,-999,-999.0,-999.0,58,-99.99,,,-99.99,,2013-05-23 21:11:00,
2013-05-23 17:22:00,78.0,66.0,-100.00,North,-999,-999.0,-999.0,67,-99.99,,,-99.99,,2013-05-23 21:22:00,
2013-05-23 17:32:00,78.0,67.0,-100.00,North,-999,-999.0,-999.0,70,-99.99,,,-99.99,,2013-05-23 21:32:00,
2013-05-23 17:43:00,78.0,67.0,-100.00,North,-999,-999.0,-999.0,70,-99.99,,,-99.99,,2013-05-23 21:43:00,
2013-05-23 17:53:00,78.0,68.0,-100.00,North,-999,-999.0,-999.0,72,-99.99,,,-99.99,,2013-05-23 21:53:00,
2013-05-23 18:03:00,76.0,68.0,-100.00,North,-999,-999.0,-999.0,74,-99.99,,,-99.99,,2013-05-23 22:03:00,
2013-05-23 18:12:00,76.0,68.0,-100.00,North,-999,-999.0,-999.0,74,-99.99,,,-99.99,,2013-05-23 22:12:00,
2013-05-23 18:23:00,78.0,67.0,-100.00,North,-999,-999.0,-999.0,71,-99.99,,,-99.99,,2013-05-23 22:23:00,
2013-05-23 18:33:00,78.0,67.0,-100.00,North,-999,-999.0,-999.0,71,-99.99,,,-99.99,,2013-05-23 22:33:00,
2013-05-23 18:42:00,78.0,67.0,-100.00,North,-999,-999.0,-999.0,71,-99.99,,,-99.99,,2013-05-23 22:42:00,
2013-05-23 18:52:00,77.0,68.0,-100.00,North,-999,-999.0,-999.0,74,-99.99,,,-99.99,,2013-05-23 22:52:00,
2013-05-23 19:02:00,76.0,68.0,-100.00,North,-999,-999.0,-999.0,76,-99.99,,,-99.99,,2013-05-23 23:02:00,
2013-05-23 19:12:00,76.0,68.0,-100.00,North,-999,-999.0,-999.0,76,-99.99,,,-99.99,,2013-05-23 23:12:00,
2013-05-23 19:22:00,76.0,69.0,-100.00,North,-999,-999.0,-999.0,78,-99.99,,,-99.99,,2013-05-23 23:22:00,
2013-05-23 19:32:00,76.0,68.0,-100.00,North,-999,-999.0,-999.0,78,-99.99,,,-99.99,,2013-05-23 23:32:00,
2013-05-23 19:42:00,75.0,68.0,-100.00,North,-999,-999.0,-999.0,78,-99.99,,,-99.99,,2013-05-23 23:42:00,
2013-05-23 19:52:00,75.0,68.0,-100.00,North,-999,-999.0,-999.0,78,-99.99,,,-99.99,,2013-05-23 23:52:00,
2013-05-23 20:01:00,75.0,67.0,-100.00,North,-999,-999.0,-999.0,76,-99.99,,,-99.99,,2013-05-24 00:01:00,
2013-05-23 20:12:00,75.0,67.0,-100.00,North,-999,-999.0,-999.0,76,-99.99,,,-99.99,,2013-05-24 00:12:00,
2013-05-23 20:21:00,74.0,65.0,-100.00,North,-999,-999.0,-999.0,74,-99.99,,,-99.99,,2013-05-24 00:21:00,
2013-05-23 20:32:00,73.0,65.0,-100.00,North,-999,-999.0,-999.0,77,-99.99,,,-99.99,,2013-05-24 00:32:00,
2013-05-23 20:42:00,73.0,65.0,-100.00,North,-999,-999.0,-999.0,77,-99.99,,,-99.99,,2013-05-24 00:42:00,
2013-05-23 20:52:00,72.0,65.0,-100.00,North,-999,-999.0,-999.0,81,-99.99,,,-99.99,,2013-05-24 00:52:00,
2013-05-23 21:01:00,71.0,66.0,-100.00,North,-999,-999.0,-999.0,83,-99.99,,,-99.99,,2013-05-24 01:01:00,
2013-05-23 21:12:00,71.0,66.0,-100.00,North,-999,-999.0,-999.0,83,-99.99,,,-99.99,,2013-05-24 01:12:00,
2013-05-23 21:22:00,70.0,66.0,-100.00,North,-999,-999.0,-999.0,85,-99.99,,,-99.99,,2013-05-24 01:22:00,
2013-05-23 21:32:00,70.0,66.0,-100.00,North,-999,-999.0,-999.0,86,-99.99,,,-99.99,,2013-05-24 01:32:00,
2013-05-23 21:42:00,70.0,66.0,-100.00,North,-999,-999.0,-999.0,86,-99.99,,,-99.99,,2013-05-24 01:42:00,
2013-05-23 21:52:00,70.0,66.0,-100.00,North,-999,-999.0,-999.0,86,-99.99,,,-99.99,,2013-05-24 01:52:00,
2013-05-23 22:02:00,70.0,66.0,-100.00,North,-999,-999.0,-999.0,87,-99.99,,,-99.99,,2013-05-24 02:02:00,
2013-05-23 22:12:00,70.0,66.0,-100.00,North,-999,-999.0,-999.0,87,-99.99,,,-99.99,,2013-05-24 02:12:00,
2013-05-23 22:22:00,70.0,66.0,-100.00,North,-999,-999.0,-999.0,87,-99.99,,,-99.99,,2013-05-24 02:22:00,
2013-05-23 22:32:00,69.0,66.0,-100.00,North,-999,-999.0,-999.0,88,-99.99,,,-99.99,,2013-05-24 02:32:00,
2013-05-23 22:42:00,69.0,66.0,-100.00,North,-999,-999.0,-999.0,88,-99.99,,,-99.99,,2013-05-24 02:42:00,
2013-05-23 22:52:00,69.0,66.0,-100.00,North,-999,-999.0,-999.0,89,-99.99,,,-99.99,,2013-05-24 02:52:00,
2013-05-23 23:02:00,68.0,65.0,-100.00,North,-999,-999.0,-999.0,90,-99.99,,,-99.99,,2013-05-24 03:02:00,
2013-05-23 23:11:00,68.0,65.0,-100.00,North,-999,-999.0,-999.0,90,-99.99,,,-99.99,,2013-05-24 03:11:00,
2013-05-23 23:22:00,68.0,66.0,-100.00,North,-999,-999.0,-999.0,91,-99.99,,,-99.99,,2013-05-24 03:22:00,
2013-05-23 23:33:00,68.0,66.0,-100.00,North,-999,-999.0,-999.0,91,-99.99,,,-99.99,,2013-05-24 03:33:00,
2013-05-23 23:42:00,68.0,66.0,-100.00,North,-999,-999.0,-999.0,91,-99.99,,,-99.99,,2013-05-24 03:42:00,
2013-05-23 23:53:00,68.0,63.0,-100.00,North,-999,-999.0,-999.0,84,-99.99,,,-99.99,,2013-05-24 03:53:00,